Weather History for EGAE - June, 2013

Change the Weather History Date:

Saturday, June 29, 2013

  Actual Average Record
Temperature  
Mean Temperature 58 °F -  
Max Temperature 64 °F 61 °F 71 °F (2006)
Min Temperature 53 °F 53 °F 50 °F (2007)
Degree Days  
Heating Degree Days 6    
Growing Degree Days 8 (Base 50)    
Moisture  
Dew Point 55 °F    
Average Humidity 85    
Maximum Humidity 94    
Minimum Humidity 77    
Precipitation  
Precipitation 0.00 in - - ()
Sea Level Pressure  
Sea Level Pressure 30.15 in    
Wind  
Wind Speed 11 mph ()    
Max Wind Speed 23 mph    
Max Gust Speed -    
Visibility 5.7 miles    
Events Rain    
Averages and records for this station are not official NWS values.
T = Trace of Precipitation, MM = Missing Value Source: Averaged Metar Reports

Daily Weather History Graph

Daily Weather History Graph

Search for Another Location

Airport or City:

Trip Planner

Search our weather history database for the weather conditions in past years. The results will help you decide how hot, cold, wet, or windy it might be!

Date:

Astronomy

Jun. 29, 2013 Rise Set
Actual Time 4:52 AM BST 10:11 PM BST
Civil Twilight 3:54 AM BST 11:08 PM BST
Nautical Twilight 2:04 AM BST 12:59 AM BST
Astronomical Twilight Sun does not rise Sun does not rise
Moon 12:21 AM BST (6/29) 1:07 PM BST (6/29)
Length of Visible Light 19h 14m
Length of Day
17h 18m
Waning Gibbous, 58% of the Moon is Illuminated
Jun 29
Waning Gibbous
Jun 30
Last Quarter
Jul 8
New
Jul 16
First Quarter
Jul 22
Full

Hourly Weather History & Observations

Time (BST) Temp. Dew Point Humidity Pressure Visibility Wind Dir Wind Speed Gust Speed Precip Events Conditions
6:20 AM 53.6 °F 50.0 °F 88% 30.15 in 6.2 mi SW 10.4 mph - N/A   Scattered Clouds
6:50 AM 53.6 °F 50.0 °F 88% 30.15 in 6.2 mi SW 8.1 mph - N/A   Scattered Clouds
7:20 AM 55.4 °F 50.0 °F 82% 30.15 in 6.2 mi SW 10.4 mph - N/A   Scattered Clouds
7:50 AM 53.6 °F 50.0 °F 88% 30.15 in 6.2 mi SW 8.1 mph - N/A   Scattered Clouds
8:20 AM 55.4 °F 51.8 °F 88% 30.15 in 6.2 mi SW 8.1 mph - N/A   Scattered Clouds
8:50 AM 55.4 °F 50.0 °F 82% 30.15 in 6.2 mi SSW 9.2 mph - N/A   Scattered Clouds
9:20 AM 57.2 °F 51.8 °F 82% 30.15 in 6.2 mi SW 10.4 mph - N/A   Scattered Clouds
9:50 AM 57.2 °F 51.8 °F 82% 30.15 in 6.2 mi SSW 9.2 mph - N/A   Scattered Clouds
10:20 AM 57.2 °F 50.0 °F 77% 30.15 in 6.2 mi SW 12.7 mph - N/A   Mostly Cloudy
10:50 AM 57.2 °F 51.8 °F 82% 30.15 in 5.0 mi WSW 11.5 mph - N/A Rain Light Rain
11:20 AM 57.2 °F 51.8 °F 82% 30.15 in 5.0 mi SW 12.7 mph - N/A Rain Light Rain
11:50 AM 57.2 °F 53.6 °F 88% 30.15 in 3.7 mi SW 13.8 mph - N/A Rain Light Rain
12:20 PM 59.0 °F 55.4 °F 88% 30.12 in 4.3 mi SW 16.1 mph - N/A   Overcast
12:50 PM 59.0 °F 55.4 °F 88% 30.12 in 2.5 mi SSW 10.4 mph - N/A   Drizzle
1:20 PM 59.0 °F 57.2 °F 94% 30.12 in 2.5 mi SW 11.5 mph - N/A   Drizzle
1:50 PM 60.8 °F 57.2 °F 88% 30.12 in 4.3 mi WSW 15.0 mph - N/A   Light Drizzle
2:20 PM 60.8 °F 57.2 °F 88% 30.15 in 5.6 mi SW 13.8 mph - N/A   Overcast
2:50 PM 60.8 °F 57.2 °F 88% 30.15 in 6.2 mi WSW 12.7 mph - N/A   Mostly Cloudy
3:20 PM 60.8 °F 57.2 °F 88% 30.15 in 6.2 mi SW 13.8 mph - N/A   Overcast
3:50 PM 62.6 °F 59.0 °F 88% 30.15 in 6.2 mi SW 13.8 mph - N/A   Overcast
4:20 PM 64.4 °F 59.0 °F 83% 30.15 in 6.2 mi WSW 20.7 mph - N/A   Mostly Cloudy
4:50 PM 64.4 °F 59.0 °F 83% 30.15 in 6.2 mi WSW 20.7 mph - N/A   Mostly Cloudy
5:20 PM 62.6 °F 57.2 °F 82% 30.15 in 6.2 mi WSW 23.0 mph - N/A   Mostly Cloudy
5:50 PM 62.6 °F 59.0 °F 88% 30.15 in 6.2 mi WSW 16.1 mph - N/A   Mostly Cloudy
6:20 PM 62.6 °F 57.2 °F 82% 30.15 in 6.2 mi WSW 18.4 mph - N/A   Mostly Cloudy
6:50 PM 62.6 °F 57.2 °F 82% 30.15 in 6.2 mi WSW 16.1 mph - N/A   Mostly Cloudy
7:20 PM 62.6 °F 57.2 °F 82% 30.15 in 6.2 mi WSW 18.4 mph - N/A   Mostly Cloudy
7:50 PM 62.6 °F 55.4 °F 77% 30.15 in 6.2 mi WSW 23.0 mph - N/A   Mostly Cloudy
8:20 PM 60.8 °F 55.4 °F 82% 30.15 in 6.2 mi WSW 18.4 mph - N/A   Mostly Cloudy
8:50 PM 60.8 °F 53.6 °F 77% 30.15 in 6.2 mi WSW 15.0 mph - N/A   Mostly Cloudy
9:20 PM 60.8 °F 55.4 °F 82% 30.15 in 6.2 mi WSW 10.4 mph - N/A Rain Light Rain
9:50 PM 59.0 °F 55.4 °F 88% 30.15 in 6.2 mi SW 10.4 mph - N/A   Mostly Cloudy
10:20 PM 60.8 °F 55.4 °F 82% 30.15 in 6.2 mi SW 11.5 mph - N/A   Mostly Cloudy